Weather in Quezon City

Philippines     14°39′05″N   121°02′57″E
temp.,
°C
wind,
m/s
gust,
m/s
humid.,
%
clouds,
%
prec.,
mm/h
press.,
hPa
HPBL,
m
13 april, tue
tue1323:00+27ne236880 0.0 1013335
02:00+26ne237351 0.0 1011223
05:00+25ne2275100 0.0 1011151
08:00+28ene1263100 0.0 1013534
11:00+33ssw2447100 0.0 10111619
14:00+34sw2344100 0.0 10081615
17:00+33sw1245100 0.0 10071389
20:00+28ene2364100 0.2 1010262
14 april, wed
wed1423:00+28ene116757 0.0 1012282
02:00+27ne117316 0.1 1010215
05:00+26e227549 0.0 1010178
08:00+29ne1161100 0.0 1012612
11:00+33ssw144585 0.0 10101839
14:00+32s344994 0.1 10081032
17:00+34e224132 0.0 10071408
20:00+29ne236343 0.1 1010364
15 april, thu
thu1523:00+28ese126894 0.0 1011302
02:00+27ne117266 0.0 1009267
05:00+26ene227462 0.0 1010187
08:00+29se125910 0.0 1011788
11:00+33ssw134685 0.0 10101791
14:00+33wsw334764 0.0 10081311
17:00+32sw434880 0.0 1007845
20:00+30n255597 0.2 1010400
16 april, fri
fri1623:00+27nne2367100 0.0 1012260
02:00+26ne227094 0.0 1010235
05:00+26e117251 0.0 1010201
08:00+29ne0160100 0.1 1012677
11:00+32sw235086 0.4 10111624
14:00+33w334563 0.6 10081478
17:00+33e124596 0.1 10081038
20:00+28e3463100 0.1 1011266
17 april, sat
sat1723:00+27ene1270100 0.1 1012236
02:00+27ene116978 0.1 1011308
05:00+26e1272100 0.1 1011289
08:00+28nne1361100 0.1 1012694
11:00+31wnw0449100 0.0 10121507
14:00+34e3437100 0.0 10092050
17:00+32e4549100 0.0 10091026
20:00+28e336672 0.0 1011413